FW0643 Weather Reports


time (UTC)temp
C
wind
direction
speed
KPH
gust
KPH
rain 1hr
cm
rain 24hr
cm
rain mn
cm
humidity
%
barometer
mb
20240518202624 15 6 1.6 3.2 0.00 0.58 0.58 98 1016.1
20240518201524 15 134 0.0 3.2 0.00 0.58 0.58 98 1016.1
20240518195622 15 106 0.0 3.2 0.00 0.58 0.58 98 1016.3
20240518194625 16 337 0.0 1.6 0.00 0.58 0.58 98 1016.1
20240518193724 16 29 3.2 6.4 0.00 0.58 0.58 98 1016.2
20240518192724 16 180 0.0 0.0 0.00 0.58 0.58 98 1016.2
20240518191726 16 22 0.0 1.6 0.00 0.58 0.58 98 1016.4
20240518185724 16 304 1.6 11.3 0.00 0.58 0.58 98 1016.7
20240518184823 16 96 1.6 4.8 0.00 0.58 0.58 97 1016.5
20240518183824 16 327 0.0 3.2 0.00 0.58 0.58 98 1016.4
20240518182824 16 359 3.2 4.8 0.00 0.58 0.58 98 1016.5
20240518181823 16 344 1.6 4.8 0.00 0.58 0.58 98 1016.6
20240518180922 16 292 0.0 0.0 0.00 0.58 0.58 99 1016.7
20240518175925 16 360 0.0 1.6 0.00 0.58 0.58 99 1016.9
20240518175023 16 22 0.0 0.0 0.00 0.58 0.58 99 1016.7
20240518173023 16 67 0.0 0.0 0.00 0.58 0.58 98 1016.8
20240518172023 16 45 0.0 1.6 0.00 0.58 0.58 98 1017.1
20240518170123 15 360 0.0 1.6 0.00 0.58 0.58 99 1017.2
20240518165125 15 360 0.0 3.2 0.00 0.58 0.58 99 1017.3
20240518164124 15 360 0.0 0.0 0.00 0.58 0.58 99 1017.2
20240518163123 15 177 0.0 4.8 0.00 0.58 0.58 98 1017.1
20240518161124 15 157 0.0 0.0 0.03 0.58 0.58 98 1016.8
20240518160140 15 67 0.0 0.0 0.03 0.58 0.58 98 1016.9
20240518154223 15 337 0.0 3.2 0.03 0.58 0.58 99 1016.7
20240518153224 15 213 0.0 3.2 0.03 0.58 0.58 98 1017.0
20240518152242 15 340 0.0 0.0 0.03 0.58 0.58 98 1017.1
20240518150224 15 15 1.6 3.2 0.00 0.56 0.56 99 1017.2
20240518145223 15 225 0.0 3.2 0.00 0.56 0.56 98 1016.8
20240518143323 15 162 1.6 3.2 0.03 0.56 0.56 99 1016.9
20240518142325 15 29 1.6 6.4 0.05 0.56 0.56 99 1016.9
20240518141324 15 260 0.0 0.0 0.08 0.56 0.56 99 1016.9
20240518140424 15 360 1.6 3.2 0.10 0.56 0.56 98 1016.9
20240518135523 15 334 3.2 6.4 0.13 0.56 0.56 98 1017.0
20240518134524 15 360 0.0 3.2 0.18 0.56 0.56 99 1017.3
20240518134422 15 14 3.2 3.2 0.18 0.56 0.56 99 1017.3
20240518133423 15 131 1.6 3.2 0.18 0.53 0.53 98 1017.4
20240518132423 15 43 0.0 0.0 0.20 0.51 0.51 99 1017.6
20240518131424 15 37 0.0 0.0 0.20 0.48 0.48 99 1017.5
20240518131323 15 45 0.0 0.0 0.20 0.48 0.48 99 1017.6
20240518130325 15 45 0.0 0.0 0.23 0.46 0.43 98 1017.6
20240518125325 15 265 0.0 6.4 0.23 0.41 0.41 99 1017.6
20240518124423 15 360 0.0 0.0 0.23 0.38 0.38 98 1017.6
20240518123523 15 21 1.6 6.4 0.25 0.36 0.36 99 1017.6
20240518122524 15 45 0.0 0.0 0.25 0.33 0.30 99 1017.7
20240518121525 15 270 0.0 0.0 0.25 0.28 0.28 98 1017.9
20240518115623 15 202 0.0 0.0 0.20 0.20 0.20 99 1017.7
20240518112723 14 180 0.0 1.6 0.08 0.08 0.08 98 1017.2
20240518110724 15 67 0.0 1.6 0.03 0.03 0.03 98 1016.4
20240518105822 15 225 0.0 1.6 0.00 0.00 0.00 98 1016.3
20240518104823 15 360 0.0 3.2 0.00 0.00 0.00 97 1016.4
20240518103923 15 180 0.0 0.0 0.00 0.00 0.00 97 1016.8
20240518102024 15 315 0.0 0.0 0.00 0.00 0.00 97 1016.3
20240518101024 15 65 1.6 3.2 0.00 0.00 0.00 97 1016.1
20240518095024 15 225 0.0 0.0 0.00 0.00 0.00 97 1016.2
20240518094024 15 157 0.0 0.0 0.00 0.00 0.00 98 1015.8
20240518093025 14 22 0.0 0.0 0.00 0.00 0.00 97 1016.0
20240518092024 14 22 0.0 0.0 0.00 0.00 0.00 98 1016.3
20240518091023 14 270 0.0 0.0 0.00 0.00 0.00 98 1016.1
20240518090024 14 270 0.0 0.0 0.00 0.00 0.00 97 1016.4
20240518085025 14 360 0.0 0.0 0.00 0.00 0.00 98 1015.8
20240518084024 14 360 0.0 0.0 0.00 0.00 0.00 97 1016.0
20240518082024 14 157 0.0 0.0 0.00 0.00 0.00 97 1016.2
20240518080023 15 157 0.0 0.0 0.00 0.00 0.00 97 1016.9
20240518075024 14 157 0.0 0.0 0.00 0.00 0.00 97 1017.1
20240518074025 14 157 0.0 0.0 0.00 0.00 0.00 97 1017.2
20240518073124 14 157 0.0 0.0 0.00 0.00 0.00 97 1017.1
20240518072123 14 157 0.0 0.0 0.00 0.00 0.00 96 1017.2
20240518071124 14 157 0.0 0.0 0.00 0.00 0.00 97 1017.2
20240518070124 14 157 0.0 0.0 0.00 0.00 0.00 96 1017.2
20240518065123 14 157 0.0 0.0 0.00 0.00 0.00 97 1017.0
20240518063223 14 157 0.0 0.0 0.00 0.00 0.00 97 1017.4
20240518062222 14 157 0.0 0.0 0.00 0.00 0.00 97 1017.4
20240518061225 14 157 0.0 0.0 0.00 0.00 0.00 95 1017.2
20240518060224 14 157 0.0 0.0 0.00 0.00 0.00 95 1017.2
20240518055224 14 157 0.0 0.0 0.00 0.00 0.00 96 1017.3
20240518054223 14 157 0.0 0.0 0.00 0.00 0.00 96 1017.4
20240518053223 14 157 0.0 0.0 0.00 0.00 0.00 96 1017.5
20240518052225 14 157 0.0 0.0 0.00 0.00 0.00 95 1017.6
20240518051322 15 157 0.0 0.0 0.00 0.00 0.00 96 1017.5
20240518051224 15 157 0.0 0.0 0.00 0.00 0.00 95 1017.5
20240518050223 15 22 0.0 3.2 0.00 0.00 0.00 96 1017.5
20240518045223 15 157 0.0 0.0 0.00 0.00 0.00 95 1017.8
20240518044322 15 157 0.0 0.0 0.00 0.00 0.00 96 1018.0
20240518042423 15 157 0.0 0.0 0.00 0.00 0.00 95 1018.4
20240518040424 15 157 0.0 0.0 0.00 0.00 0.00 95 1018.3
20240518035442 15 157 0.0 0.0 0.00 0.00 0.00 94 1018.2
20240518034541 15 157 0.0 0.0 0.00 0.00 0.00 94 1018.1
20240518033641 15 157 0.0 0.0 0.00 0.00 0.00 94 1018.3
20240518031741 15 157 0.0 0.0 0.00 0.00 0.00 94 1018.5
20240518030744 15 157 0.0 0.0 0.00 0.00 0.00 94 1018.5
20240518025742 15 157 0.0 0.0 0.00 0.00 0.00 93 1018.3
20240518024841 15 157 0.0 0.0 0.00 0.00 0.00 94 1018.3
20240518023844 15 157 0.0 0.0 0.00 0.00 0.00 93 1018.4
20240518022941 15 157 0.0 0.0 0.00 0.00 0.00 94 1018.3
20240518021941 15 157 0.0 0.0 0.00 0.00 0.00 93 1018.0
20240518020942 15 157 0.0 0.0 0.00 0.00 0.00 93 1018.1
20240518014043 15 247 0.0 0.0 0.00 0.00 0.00 91 1018.0
20240518013141 15 247 0.0 0.0 0.00 0.00 0.00 92 1018.0
20240518012240 15 247 0.0 0.0 0.00 0.00 0.00 91 1018.0
20240518011243 15 247 0.0 1.6 0.00 0.00 0.00 90 1017.9
20240518010243 15 247 0.0 0.0 0.00 0.00 0.00 89 1017.7
20240518005243 15 247 0.0 0.0 0.00 0.00 0.00 90 1017.6
20240518003343 16 22 0.0 0.0 0.00 0.00 0.00 89 1017.5
20240518002342 16 180 0.0 0.0 0.00 0.00 0.00 89 1017.5
20240518001343 16 202 0.0 0.0 0.00 0.00 0.00 88 1017.7
20240518000340 16 67 0.0 0.0 0.00 0.00 0.00 88 1017.6
20240517235342 16 357 0.0 4.8 0.00 0.00 0.00 87 1017.5
20240517232443 17 202 0.0 0.0 0.00 0.00 0.00 85 1017.3
20240517231444 18 94 1.6 3.2 0.00 0.00 0.00 85 1017.1
20240517230542 18 180 0.0 0.0 0.00 0.00 0.00 84 1016.9
20240517230443 18 180 0.0 0.0 0.00 0.00 0.00 84 1016.9
20240517225441 18 337 0.0 0.0 0.00 0.00 0.00 82 1017.1
20240517224540 18 337 0.0 0.0 0.00 0.00 0.00 82 1016.8
20240517222544 18 225 0.0 0.0 0.00 0.00 0.00 82 1016.8
20240517221544 18 67 0.0 0.0 0.00 0.00 0.00 82 1016.9
20240517220542 18 67 0.0 1.6 0.00 0.00 0.00 80 1017.1
20240517215542 18 185 0.0 0.0 0.00 0.00 0.00 81 1017.1
20240517213642 19 216 0.0 3.2 0.00 0.00 0.00 79 1016.9
20240517212640 19 270 0.0 0.0 0.00 0.00 0.00 79 1017.1
20240517211641 20 13 0.0 1.6 0.00 0.00 0.00 78 1017.2
20240517205641 20 292 1.6 4.8 0.00 0.00 0.00 77 1017.2
20240517204643 20 219 0.0 1.6 0.00 0.00 0.00 77 1017.2
20240517203644 20 114 0.0 3.2 0.00 0.00 0.00 76 1017.2